Weather History for K20U - January, 2013

Change the Weather History Date:

Thursday, January 24, 2013

  Actual Average (KGDV) Record (KGDV)
Temperature  
Mean Temperature 20 °F -  
Max Temperature 33 °F 24 °F 53 °F (2005)
Min Temperature 6 °F 6 °F -11 °F (2009)
Degree Days  
Heating Degree Days 46    
Moisture  
Dew Point 13 °F    
Average Humidity 80    
Maximum Humidity 93    
Minimum Humidity 64    
Precipitation  
Precipitation 0.00 in - - ()
Sea Level Pressure  
Sea Level Pressure 29.93 in    
Wind  
Wind Speed 22 mph (SSW)    
Max Wind Speed 31 mph    
Max Gust Speed 39 mph    
Visibility 10 miles    
Events Snow    
Averages and records for this station are not official NWS values.
T = Trace of Precipitation, MM = Missing Value Source: NWS Daily Summary

Daily Weather History Graph

Daily Weather History Graph

Search for Another Location

Airport or City:

Trip Planner

Search our weather history database for the weather conditions in past years. The results will help you decide how hot, cold, wet, or windy it might be!

Date:

Astronomy

Jan. 24, 2013 Rise Set
Actual Time 7:29 AM MST 4:47 PM MST
Civil Twilight 6:56 AM MST 5:20 PM MST
Nautical Twilight 6:19 AM MST 5:57 PM MST
Astronomical Twilight 5:43 AM MST 6:33 PM MST
Moon 2:49 PM MST (1/24) 5:31 AM MST (1/24)
Length of Visible Light 10h 24m
Length of Day
9h 18m
Waxing Gibbous, 95% of the Moon is Illuminated
Jan 24
Waxing Gibbous
Jan 26
Full
Feb 3
Last Quarter
Feb 10
New
Feb 17
First Quarter

Hourly Weather History & Observations

Time (MST) Temp. Windchill Dew Point Humidity Pressure Visibility Wind Dir Wind Speed Gust Speed Precip Events Conditions
12:15 AM 6.8 °F -15.9 °F 1.4 °F 79% 30.07 in 10.0 mi SE 27.6 mph 36.8 mph N/A   Clear
12:35 AM 6.8 °F -16.2 °F 1.4 °F 79% 30.06 in 10.0 mi SE 28.8 mph 35.7 mph N/A   Mostly Cloudy
12:55 AM 6.8 °F -15.5 °F 1.4 °F 79% 30.05 in 10.0 mi SE 26.5 mph 36.8 mph N/A Snow Light Snow
1:15 AM 6.8 °F -15.9 °F 1.4 °F 79% 30.02 in 10.0 mi SE 27.6 mph 35.7 mph N/A Snow Light Snow
1:35 AM 6.8 °F -16.2 °F 1.4 °F 79% 30.02 in 10.0 mi SE 28.8 mph 39.1 mph N/A Snow Light Snow
1:55 AM 6.8 °F -16.2 °F 1.4 °F 79% 30.01 in 10.0 mi SE 28.8 mph 36.8 mph N/A   Overcast
2:15 AM 6.8 °F -16.9 °F 1.4 °F 79% 30.00 in 10.0 mi SE 31.1 mph 38.0 mph N/A   Overcast
2:35 AM 6.8 °F -14.7 °F 1.4 °F 79% 30.00 in 10.0 mi SE 24.2 mph 38.0 mph N/A Snow Light Snow
2:55 AM 6.8 °F -15.5 °F 1.4 °F 79% 30.01 in 10.0 mi SE 26.5 mph 34.5 mph N/A   Overcast
3:15 AM 6.8 °F -14.7 °F 1.4 °F 79% 30.01 in 10.0 mi SE 24.2 mph 32.2 mph N/A   Overcast
3:35 AM 6.8 °F -14.3 °F 1.4 °F 79% 30.00 in 10.0 mi SE 23.0 mph 32.2 mph N/A   Overcast
3:55 AM 6.8 °F -14.3 °F 1.4 °F 79% 29.98 in 7.0 mi SE 23.0 mph 31.1 mph N/A   Overcast
4:15 AM 6.8 °F -13.4 °F 1.4 °F 79% 29.98 in 9.0 mi SE 20.7 mph 31.1 mph N/A   Overcast
4:35 AM 6.8 °F -15.1 °F 3.2 °F 85% 29.96 in 10.0 mi SE 25.3 mph 32.2 mph N/A   Overcast
4:55 AM 6.8 °F -16.2 °F 3.2 °F 85% 29.94 in 10.0 mi SSE 28.8 mph 33.4 mph N/A   Overcast
5:15 AM 6.8 °F -15.5 °F 3.2 °F 85% 29.94 in 10.0 mi SSE 26.5 mph 31.1 mph N/A   Overcast
5:35 AM 8.6 °F -11.9 °F 3.2 °F 79% 29.93 in 10.0 mi SSE 23.0 mph 34.5 mph N/A   Overcast
5:55 AM 8.6 °F -13.8 °F 3.2 °F 79% 29.91 in 10.0 mi SSE 28.8 mph 35.7 mph N/A   Overcast
6:15 AM 8.6 °F -14.1 °F 3.2 °F 79% 29.91 in 10.0 mi SSE 29.9 mph 35.7 mph N/A   Overcast
6:35 AM 8.6 °F -11.9 °F 3.2 °F 79% 29.90 in 10.0 mi SSE 23.0 mph 33.4 mph N/A   Overcast
6:55 AM 8.6 °F -11.9 °F 3.2 °F 79% 29.90 in 10.0 mi SSE 23.0 mph 33.4 mph N/A   Overcast
7:15 AM 8.6 °F -11.0 °F 3.2 °F 79% 29.89 in 10.0 mi SSE 20.7 mph 29.9 mph N/A   Overcast
7:35 AM 8.6 °F -11.0 °F 5.0 °F 85% 29.88 in 10.0 mi SSE 20.7 mph 27.6 mph N/A   Overcast
7:55 AM 8.6 °F -10.5 °F 5.0 °F 85% 29.87 in 10.0 mi SSE 19.6 mph 28.8 mph N/A   Overcast
8:15 AM 8.6 °F -11.4 °F 5.0 °F 85% 29.87 in 10.0 mi SSE 21.9 mph 28.8 mph N/A   Mostly Cloudy
8:35 AM 8.6 °F -11.9 °F 5.0 °F 85% 29.87 in 10.0 mi South 23.0 mph 27.6 mph N/A   Mostly Cloudy
8:55 AM 10.4 °F -7.2 °F 6.8 °F 85% 29.87 in 10.0 mi South 17.3 mph 24.2 mph N/A   Scattered Clouds
9:15 AM 10.4 °F -9.5 °F 6.8 °F 85% 29.87 in 10.0 mi South 23.0 mph 28.8 mph N/A   Overcast
9:35 AM 10.4 °F -8.2 °F 6.8 °F 85% 29.86 in 10.0 mi South 19.6 mph 26.5 mph N/A   Scattered Clouds
9:55 AM 10.4 °F -9.1 °F 6.8 °F 85% 29.87 in 10.0 mi South 21.9 mph 26.5 mph N/A   Mostly Cloudy
10:15 AM 12.2 °F -4.8 °F 6.8 °F 79% 29.87 in 10.0 mi South 17.3 mph 21.9 mph N/A   Mostly Cloudy
10:35 AM 14.0 °F -1.4 °F 8.6 °F 79% 29.89 in 10.0 mi South 15.0 mph 18.4 mph N/A   Partly Cloudy
10:55 AM 15.8 °F 3.4 °F 8.6 °F 73% 29.90 in 10.0 mi South 10.4 mph - N/A   Clear
11:15 AM 17.6 °F 7.3 °F 10.4 °F 73% 29.88 in 10.0 mi SSE 8.1 mph - N/A   Partly Cloudy
11:35 AM 19.4 °F 7.9 °F 10.4 °F 68% 29.86 in 10.0 mi SSE 10.4 mph - N/A   Partly Cloudy
11:55 AM 21.2 °F 8.3 °F 14.0 °F 74% 29.85 in 10.0 mi South 13.8 mph - N/A   Clear
12:15 PM 21.2 °F 9.5 °F 14.0 °F 74% 29.85 in 10.0 mi South 11.5 mph - N/A   Partly Cloudy
12:35 PM 23.0 °F 12.4 °F 15.8 °F 74% 29.85 in 10.0 mi South 10.4 mph - N/A   Mostly Cloudy
12:55 PM 24.8 °F 16.9 °F 17.6 °F 74% 29.84 in 10.0 mi SSW 6.9 mph - N/A   Overcast
1:15 PM 30.2 °F 26.7 °F 19.4 °F 64% 29.84 in 10.0 mi SW 3.5 mph - N/A   Overcast
1:35 PM 32.0 °F 22.5 °F 23.0 °F 69% 29.83 in 10.0 mi West 12.7 mph - N/A   Overcast
1:55 PM 32.0 °F 21.6 °F 23.0 °F 69% 29.84 in 10.0 mi West 15.0 mph - N/A   Overcast
2:15 PM 33.8 °F 23.2 °F 23.0 °F 65% 29.85 in 10.0 mi West 17.3 mph 21.9 mph N/A   Scattered Clouds
2:35 PM 33.8 °F 23.5 °F 23.0 °F 65% 29.84 in 10.0 mi West 16.1 mph - N/A   Clear
2:55 PM 33.8 °F 23.5 °F 24.8 °F 70% 29.85 in 10.0 mi West 16.1 mph - N/A   Clear
3:15 PM 33.8 °F 23.2 °F 24.8 °F 70% 29.86 in 10.0 mi WNW 17.3 mph 23.0 mph N/A   Clear
3:35 PM 32.0 °F 21.6 °F 24.8 °F 75% 29.87 in 10.0 mi West 15.0 mph 23.0 mph N/A   Clear
3:55 PM 32.0 °F 21.6 °F 24.8 °F 75% 29.88 in 10.0 mi WNW 15.0 mph 21.9 mph N/A   Clear
4:15 PM 32.0 °F 20.8 °F 24.8 °F 75% 29.89 in 10.0 mi WNW 17.3 mph 25.3 mph N/A   Clear
4:35 PM 32.0 °F 22.1 °F 24.8 °F 75% 29.89 in 10.0 mi WNW 13.8 mph - N/A   Clear
4:55 PM 30.2 °F 18.5 °F 24.8 °F 80% 29.91 in 10.0 mi WNW 17.3 mph - N/A   Clear
5:15 PM 30.2 °F 17.4 °F 24.8 °F 80% 29.92 in 10.0 mi WNW 20.7 mph 26.5 mph N/A   Clear
5:35 PM 28.4 °F 15.8 °F 24.8 °F 86% 29.94 in 10.0 mi WNW 18.4 mph - N/A   Mostly Cloudy
5:55 PM 28.4 °F 16.6 °F 24.8 °F 86% 29.95 in 10.0 mi WNW 16.1 mph - N/A   Overcast
6:15 PM 26.6 °F - 23.0 °F 86% 29.96 in 10.0 mi North - - N/A   Partly Cloudy
6:35 PM 24.8 °F 13.4 °F 23.0 °F 93% 29.97 in 10.0 mi WNW 12.7 mph - N/A   Clear
6:55 PM 24.8 °F - 23.0 °F 93% 29.98 in 10.0 mi North - - N/A   Clear
7:15 PM 24.8 °F - 23.0 °F 93% 29.98 in 10.0 mi North - - N/A   Clear
7:35 PM 23.0 °F 13.1 °F 19.4 °F 86% 29.98 in 10.0 mi West 9.2 mph - N/A   Clear
7:55 PM 23.0 °F - 21.2 °F 93% 29.98 in 10.0 mi North - - N/A   Clear
8:15 PM 23.0 °F - 19.4 °F 86% 29.98 in 10.0 mi North - - N/A   Clear
8:35 PM 23.0 °F - 19.4 °F 86% 29.98 in 10.0 mi North - - N/A   Clear
8:55 PM 24.8 °F - 21.2 °F 86% 29.98 in 10.0 mi North - - N/A   Clear
9:15 PM 24.8 °F - 19.4 °F 80% 29.99 in 10.0 mi North - - N/A   Clear
9:35 PM 24.8 °F 12.4 °F 19.4 °F 80% 30.00 in 10.0 mi West 15.0 mph - N/A   Clear
9:55 PM 24.8 °F 11.5 °F 19.4 °F 80% 30.00 in 10.0 mi West 17.3 mph - N/A   Clear
10:15 PM 24.8 °F 12.4 °F 19.4 °F 80% 30.00 in 10.0 mi West 15.0 mph - N/A   Clear
10:35 PM 24.8 °F 12.4 °F 19.4 °F 80% 30.01 in 10.0 mi West 15.0 mph - N/A   Clear
10:55 PM 23.0 °F 11.7 °F 17.6 °F 80% 30.02 in 10.0 mi West 11.5 mph - N/A   Clear
11:15 PM 24.8 °F 11.9 °F 19.4 °F 80% 30.02 in 10.0 mi West 16.1 mph - N/A   Clear
11:35 PM 23.0 °F 11.1 °F 17.6 °F 80% 30.02 in 10.0 mi West 12.7 mph - N/A   Clear
11:55 PM 23.0 °F 12.4 °F 17.6 °F 80% 30.02 in 10.0 mi West 10.4 mph - N/A   Clear